Погода в Нижнем Чулыме

Россия / Новосибирская область     54°36′51″N   78°56′15″E
темп.,
°C
ветер,
м/с
пор.,
м/с
влажн.,
%
обл.,
%
осадки,
мм/ч
давл.,
гПа
погр.,
м
28 февраля, вс
вс2801:00−29ю349912 0.0 103748
04:00−30ю349849 0.0 103549
07:00−29юв349544 0.0 103547
10:00−26юв5109576 0.0 1032211
13:00−21юв589088 0.0 1029303
16:00−17юв5995100 0.1 1027355
19:00−15вюв51094100 0.4 1023367
22:00−12вюв51094100 0.1 1019293
1 марта, пн
пн101:00−9вюв61195100 0.5 1016366
04:00−8вюв51095100 1.6 1011358
07:00−6в5896100 3.4 1008263
10:00−4всв4597100 1.3 1006164
13:00−2ссв1498100 3.1 1005208
16:00−1зюз2699100 1.8 1005373
19:00−3ссз2598100 3.6 1006231
22:00−8ссз3596100 0.9 1008144
2 марта, вт
вт201:00−13ссз349697 1.0 101151
04:00−16сз349798 0.1 101365
07:00−19зсз339996 0.1 101627
10:00−19з239899 0.0 101745
13:00−16зюз239295 0.1 1018257
16:00−13юз2390100 0.1 1017386
19:00−14юз1296100 0.3 101725
22:00−16юз129682 0.1 101720
3 марта, ср
ср301:00−18юз129881 0.1 101620
04:00−17юз129787 0.1 101620
07:00−17ююз129791 0.3 101720
10:00−16ююз2396100 0.1 1016110
13:00−13ююз359288 0.2 1018346
16:00−11ююз469199 0.0 1018497
19:00−14ююз599499 0.1 1019293
22:00−16ю51194100 0.0 1019277
4 марта, чт
чт401:00−14ю6119499 0.1 1019344
04:00−11ююз6119499 0.3 1017441
07:00−11ю61293100 0.7 1017384
10:00−10ю71293100 0.1 1016383
13:00−8ю71293100 0.4 1016492
16:00−6ююз81393100 0.7 1014637
19:00−5ю81493100 0.9 1013669
22:00−5ю71590100 0.1 1012487